SCP
0 0 0 0 0 0 0 0 0 0 0 0 0 0 0 0 0 0 0 0 0 0 0 0 0 0 0 0 0 0 0 0 0 0 0 0 0 0
0 0 0 0 0 0 0 0 0 0 0 0 0 0 0 0 0 0 0 0 0 0 0 0 0 0 0 0 0 0 0 0 0 0 0 0 0 0
0 0 0 0 0 0 0 0 0 0 0 0 0 0 0 0 0 0 0 0 0 0 0 0 0 0 0 0 0 0 0 0 0 0 0 0 0 0
0 0 0 0 0 0 0 0 0 0 0 0 0 0 0 0 0 0 0 0 0 0 0 0 0 0 0 0 -0 0 0 0 0 0 0 0 0 0
0 0 0 0 0 0 0 0 0 0 0 0 0 0 0 0 0 0 0 0 0 0 0 0 0 0 0 0 0 0 0 0 0 0 0 0 0 0
0 0 0 0 0 0 0 0 0 0 0 0 0 0 0 0 0 0 0 0 0 0 0 0 0 0 0 0 0 0 0 0 0 0 0 0 0 0
0 0 0 0 0 0 0 0 0 0 0 0 0 0 0 0 0 0 0 0 0 0 0 0 0 0 0 0 0 0 0 0 0 0 0 0 0 0
0 0 0 0 0 0 0 0 0 0 0 0 0 0 0 0 0 0 0 0 0 0 0 0 0 0 0 0 0 0 0 0 0 0 0 0 0 0
0 0 0 0 0 0 0 0 0 0 0 0 0 0 0 0 1 0 0 0 0 0 0 0 0 0 0 0 0 0 0 0 0 0 0 0 0 0
0 0 0 0 0 0 0 0 0 0 0 0 0 0 0 0 0 0 0 0 0 0 0 0 0 0 0 0 0 0 0 0 0 0 0 0 0 0
0 0 0 0 0 0 0 0 0 0 0 0 0 0 0 0 0 0 0 0 0 0 0 0 0 0 0 0 0 0 0 0 0 0 0 0 0 0
0 0 0 0 0 0 0 0 0 0 0 0 0 0 0 0 0 0 0 0 0 0 0 0 0 0 0 0 0 0 0 0 0 0 0 0 0 0
0 0 0 0 0 0 0 0 0 0 0 0 0 0 0 0 0 0 0 0 0 0 0 0 0 0 0 0 0 0 0 0 0 0 0 0 0 0
0 0 0 0 0 0 0 0 0 0 0 0 0 0 0 0 0 0 0 0 0 0 0 0 0 0 0 0 0 0 0 0 0 0 0 0 0 0
0 0 0 0 0 0 0 0 0 0 0 0 0 0 0 0 0 0 0 0 0 0 0 0 0 0 0 0 0 0 0 0 0 0 0 0 0 0
0 0 0 0 0 0 0 0 0 0 0 0 0 0 0 0 0 0 0 0 0 0 0 0 0 0 0 0 0 0 0 0 0 0 0 0 0 0
0 0 0 0 0 0 0 0 0 0 0 0 0 0 0 0 0 0 0 0 0 0 0 0 0 0 0 0 0 0 0 0 0 0 0 0 0 0
0 0 0 0 0 0 0 0 0 0 0 0 0 0 0 0 0 0 0 0 0 0 0 0 0 0 0 0 0 0 0 0 0 0 0 0 0 0
0 0 0 0 0 0 0 0 0 0 0 0 0 0 0 0 0 0 0 0 0 0 0 0 0 0 0 0 0 0 0 0 0 0 0 0 0 0
0 0 0 0 0 0 0 0 0 0 0 0 0 0 0 0 0 0 0 0 0 0 0 0 0 0 0 0 0 0 0 0 0 0 0 0 0 0
0 0 0 0 0 0 0 0 0 0 0 0 0 0 0 0 0 0 0 0 0 0 0 0 0 0 0 0 0 0 0 0 0 0 0 0 0 0
0 0 0 0 0 0 0 0 0 0 0 0 0 0 0 0 0 0 0 0 0 0 0 0 0 0 0 0 0 0 0 0 0 0 0 0 0 0
0 0 0 0 0 0 0 0 0 0 0 0 0 0 0 0 0 0 0 0 0 0 0 0 0 0 0 0 0 0 0 0 0 0 0 0 0 0
Wind_Speed
6 6 6 3 4 3 4 4 5 5 4 5 5 4 4 4 3 5 5 6 6 6 7 7 7 7 8 8 8 9 9 9 9 9 9 9 10 11
4 4 5 5 4 4 4 4 5 6 6 2 4 4 3 4 5 6 7 6 10 10 9 9 9 9 9 9 10 10 10 10 10 10 10 10 10 11
7 7 8 6 5 5 5 5 5 5 6 5 3 3 4 7 4 6 7 8 8 12 11 10 10 11 11 11 11 11 11 11 11 11 11 11 11 12
9 8 8 7 7 7 5 6 5 5 6 7 5 5 6 7 6 7 8 7 8 8 11 11 12 12 12 12 12 12 12 12 12 12 12 12 13 13
9 9 9 8 8 7 7 7 6 6 6 7 7 5 5 6 6 8 9 7 9 7 11 13 13 13 13 13 13 13 13 13 13 13 13 13 13 13
9 9 9 9 10 9 8 8 7 7 7 8 8 6 6 6 6 7 7 7 8 8 7 7 10 13 15 15 15 15 15 14 14 14 14 14 14 14
9 10 10 9 8 8 8 8 8 8 8 8 8 7 7 5 6 7 7 7 7 8 8 8 8 9 10 14 17 17 16 15 15 14 14 14 15 15
10 10 10 10 10 10 10 9 9 10 10 8 8 8 7 7 6 7 7 8 8 6 6 8 8 9 8 10 8 11 14 15 15 15 15 15 15 15
9 8 9 8 10 11 12 13 13 13 12 11 11 11 9 7 7 8 8 9 9 8 8 10 10 10 10 9 8 10 13 14 15 15 16 16 16 16
8 9 9 9 8 8 9 11 11 11 12 11 11 10 9 6 6 8 9 10 11 10 9 11 10 11 10 9 9 13 15 15 16 16 16 16 16 16
8 8 9 9 6 6 9 10 10 9 8 8 8 8 7 7 7 7 9 9 10 9 7 9 10 10 10 11 10 13 15 16 16 17 17 17 17 15
6 6 6 6 4 6 8 9 10 8 6 6 7 8 9 10 11 10 9 9 10 9 7 7 9 9 11 10 9 8 9 13 16 17 18 18 16 13
4 4 3 5 5 5 6 7 6 5 5 7 7 7 7 7 8 9 9 9 10 10 7 7 9 10 11 11 10 10 10 10 10 12 16 18 18 16
4 3 1 3 5 6 6 5 4 5 6 7 7 7 7 7 7 7 8 10 10 12 11 11 10 10 12 13 12 11 11 11 11 11 11 12 16 19
2 1 1 2 4 6 8 7 6 6 6 7 7 7 7 7 7 7 9 10 12 12 12 12 12 11 12 13 13 12 12 12 11 11 11 11 11 11
2 2 4 5 5 4 4 6 6 5 6 7 7 7 7 7 7 8 8 8 9 10 11 12 12 13 13 14 13 13 13 12 12 12 12 12 12 12
2 3 4 3 4 4 5 5 5 6 7 7 7 7 7 7 8 7 8 9 10 11 10 9 10 10 13 13 13 13 13 13 12 12 11 13 13 12
4 4 4 4 5 5 5 5 6 7 7 7 7 8 8 8 8 8 8 9 10 10 10 10 9 9 11 11 12 14 13 13 12 12 12 13 14 13
6 5 5 5 5 5 6 6 6 6 6 7 7 8 8 8 8 9 9 9 10 10 10 9 9 10 13 14 12 10 12 12 12 13 12 12 14 13
6 6 6 6 6 6 6 7 7 7 6 7 8 8 8 9 9 9 9 11 10 11 11 10 10 10 12 14 14 12 12 13 12 13 13 12 13 13
5 5 6 6 6 7 7 7 8 7 8 8 8 9 9 9 9 10 10 11 11 11 12 11 10 11 11 11 13 13 12 11 12 12 13 13 14 13
7 7 6 7 7 7 7 8 8 8 8 8 9 9 9 9 10 12 11 10 10 11 12 11 11 10 10 12 14 15 15 14 13 16 18 17 14 13
7 7 8 8 8 7 7 8 9 8 8 9 8 8 9 9 9 10 11 11 11 11 12 12 11 10 11 12 13 13 17 16 13 12 12 15 20 22
Wind_Direction
212 205 231 223 235 244 251 264 270 264 236 198 223 206 222 234 170 237 243 183 211 236 245 250 254 256 258 259 260 260 260 259 259 258 258 258 259 255
225 222 230 231 222 233 239 246 261 275 278 245 219 228 233 253 193 241 253 195 220 230 238 245 251 254 256 256 256 256 257 257 256 255 254 254 255 256
214 212 219 239 236 231 229 237 244 253 263 264 239 224 228 262 248 251 255 252 239 208 220 237 247 252 254 255 254 253 254 255 256 255 253 252 251 252
219 218 220 216 221 245 242 241 244 254 261 267 261 239 226 240 250 259 261 255 266 205 208 230 243 247 250 252 252 251 252 253 254 254 253 253 252 253
224 222 223 222 222 228 235 242 239 234 243 258 257 253 246 240 246 249 255 259 267 240 209 222 232 240 245 247 248 248 250 251 252 252 252 252 252 253
228 228 228 226 225 228 230 237 245 247 241 250 256 251 245 241 246 257 258 243 255 269 262 247 230 227 235 239 241 242 244 246 248 249 251 251 251 252
226 228 230 231 234 235 241 233 232 238 244 245 251 254 249 247 251 258 266 270 259 260 265 263 251 245 235 231 233 237 238 241 244 247 249 250 251 251
230 229 230 222 225 228 245 256 257 247 250 255 257 258 260 259 261 266 271 272 275 266 267 270 271 270 266 262 241 220 226 235 240 244 247 250 250 250
233 235 240 230 219 229 226 229 241 246 248 256 263 266 269 268 273 269 268 275 280 288 284 276 275 273 269 266 236 227 233 237 241 244 247 248 249 250
236 238 242 248 237 235 240 236 236 236 233 235 249 260 269 280 273 272 278 273 268 262 258 267 273 274 275 271 239 226 233 238 242 245 247 248 248 248
239 239 241 243 226 218 242 248 247 245 236 230 242 257 274 275 270 269 267 269 273 273 262 266 275 279 280 276 262 227 228 235 240 243 245 246 247 249
237 238 234 237 223 211 240 249 251 252 257 244 239 245 250 247 233 237 254 263 270 275 271 266 274 280 280 274 274 268 247 239 236 239 241 241 240 246
246 241 225 188 217 226 242 255 261 271 266 260 256 253 249 246 240 234 239 253 265 269 280 280 278 277 276 281 279 275 273 271 258 248 239 236 234 234
261 268 273 171 213 228 235 245 251 257 257 255 255 256 257 256 257 257 255 257 260 267 277 278 275 275 278 280 281 280 276 273 270 269 266 249 231 229
276 342 319 206 223 230 227 226 230 241 249 254 258 261 264 266 268 263 258 253 254 257 260 258 261 266 267 271 277 279 280 278 273 270 268 266 262 252
241 212 209 220 234 253 240 224 234 249 257 261 267 271 274 271 266 268 270 270 270 269 260 256 257 261 265 268 272 275 275 276 277 275 274 270 266 262
275 251 245 237 237 240 247 248 248 245 247 256 266 271 271 272 274 277 277 277 275 278 281 275 264 259 260 266 271 271 274 274 273 275 274 272 267 264
268 259 260 259 261 261 260 257 254 257 260 266 270 273 276 278 279 279 277 274 275 276 278 282 282 278 272 264 251 267 272 275 278 275 273 272 270 267
256 264 268 270 272 272 271 272 272 271 274 273 273 274 276 276 276 276 274 274 274 276 278 281 280 278 278 278 271 249 273 280 280 277 272 269 269 270
261 278 283 283 282 283 283 284 283 281 273 272 274 278 279 278 277 277 277 277 280 282 281 278 276 276 278 285 290 284 261 269 276 277 276 275 273 270
281 280 283 284 284 283 284 284 281 279 280 282 281 280 279 277 277 279 280 282 279 279 279 280 283 283 282 282 279 279 277 260 259 268 277 279 278 276
301 299 297 295 295 293 292 288 285 283 282 279 281 283 284 284 283 283 283 283 282 281 284 286 287 282 278 276 278 283 285 282 267 251 248 254 265 271
309 308 305 302 298 294 291 292 291 289 288 288 289 289 289 287 285 284 283 282 282 284 287 288 288 286 282 278 279 281 283 284 281 276 267 248 240 248